• In India
  • List of Countries
  • For 7 days
  • Water Temperature
  • Satellite Maps
  • Weather Map
  • Weather Widgets
  • user-avatar
    Login

    Hourly Weather Solden

    Today, 16 October, Tuesday

    Time Temperature Precipitation Wind Pressure Humidity
    00:00 +1°C° 0 mm 1 mps 583 mmHg 93%
    01:00 +1°C° 0 mm 1 mps 583 mmHg 93%
    02:00 +1°C° 0 mm 1 mps 583 mmHg 92%
    03:00 +1°C° 0 mm 1 mps 583 mmHg 91%
    04:00 +1°C° 0 mm 1 mps 583 mmHg 90%
    05:00 +1°C° 0 mm 1 mps 583 mmHg 89%
    06:00 +1°C° 0 mm 1 mps 583 mmHg 88%
    07:00 +1°C° 0 mm 1 mps 583 mmHg 88%
    08:00 +3°C° 0 mm 1 mps 584 mmHg 78%
    09:00 +6°C° 0 mm 1 mps 585 mmHg 69%
    10:00 +8°C° 0 mm 1 mps 586 mmHg 59%
    11:00 +9°C° 0 mm 1 mps 587 mmHg 56%
    12:00 +10°C° 0 mm 1 mps 587 mmHg 53%
    13:00 +10°C° 0 mm 1 mps 587 mmHg 49%
    14:00 +10°C° 0 mm 1 mps 587 mmHg 53%
    15:00 +9°C° 0 mm 1 mps 587 mmHg 57%
    16:00 +9°C° 0 mm 1 mps 586 mmHg 61%
    17:00 +7°C° 0 mm 1 mps 586 mmHg 70%
    18:00 +5°C° 0 mm 1 mps 585 mmHg 80%
    19:00 +3°C° 0 mm 1 mps 584 mmHg 90%
    20:00 +3°C° 0 mm 1 mps 584 mmHg 90%
    21:00 +3°C° 0 mm 1 mps 584 mmHg 91%
    22:00 +3°C° 0 mm 1 mps 584 mmHg 91%
    23:00 +2°C° 0 mm 1 mps 584 mmHg 92%

    Tomorrow, 17 October, Wednesday

    Time Temperature Precipitation Wind Pressure Humidity
    00:00 +2°C° 0 mm 1 mps 584 mmHg 92%
    01:00 +2°C° 0 mm 1 mps 584 mmHg 92%
    02:00 +2°C° 0 mm 1 mps 583 mmHg 91%
    03:00 +2°C° 0 mm 1 mps 583 mmHg 91%
    04:00 +2°C° 0 mm 1 mps 583 mmHg 91%
    05:00 +2°C° 0 mm 1 mps 583 mmHg 90%
    06:00 +2°C° 0 mm 1 mps 583 mmHg 89%
    07:00 +2°C° 0 mm 1 mps 583 mmHg 88%
    08:00 +4°C° 0 mm 1 mps 584 mmHg 78%
    09:00 +6°C° 0 mm 1 mps 585 mmHg 68%
    10:00 +8°C° 0 mm 0 mps 586 mmHg 58%
    11:00 +10°C° 0 mm 1 mps 587 mmHg 55%
    12:00 +10°C° 0 mm 1 mps 587 mmHg 51%
    13:00 +11°C° 0 mm 1 mps 587 mmHg 48%
    14:00 +11°C° 0 mm 1 mps 586 mmHg 52%
    15:00 +10°C° 0 mm 1 mps 586 mmHg 55%
    16:00 +9°C° 0 mm 1 mps 586 mmHg 58%
    17:00 +7°C° 0.1 mm 1 mps 585 mmHg 69%
    18:00 +5°C° 0.1 mm 1 mps 584 mmHg 79%
    19:00 +2°C° 0.1 mm 0 mps 583 mmHg 89%
    20:00 +3°C° 0 mm 1 mps 583 mmHg 89%
    21:00 +3°C° 0 mm 1 mps 583 mmHg 89%
    22:00 +3°C° 0 mm 1 mps 583 mmHg 89%
    23:00 +3°C° 0 mm 1 mps 583 mmHg 89%

    Day after tomorrow, 18 October, Thursday

    Time Temperature Precipitation Wind Pressure Humidity
    00:00 +3°C° 0 mm 1 mps 583 mmHg 88%
    01:00 +3°C° 0 mm 1 mps 583 mmHg 88%
    02:00 +2°C° 0 mm 1 mps 583 mmHg 88%
    03:00 +2°C° 0 mm 1 mps 582 mmHg 87%
    04:00 +2°C° 0 mm 1 mps 582 mmHg 87%
    05:00 +2°C° 0 mm 1 mps 582 mmHg 86%
    06:00 +2°C° 0 mm 1 mps 582 mmHg 85%
    07:00 +2°C° 0 mm 1 mps 582 mmHg 84%
    08:00 +5°C° 0 mm 1 mps 584 mmHg 74%
    09:00 +7°C° 0 mm 1 mps 585 mmHg 65%
    10:00 +10°C° 0 mm 1 mps 586 mmHg 55%
    11:00 +10°C° 0 mm 1 mps 586 mmHg 52%
    12:00 +11°C° 0 mm 1 mps 587 mmHg 50%
    13:00 +12°C° 0 mm 1 mps 587 mmHg 47%
    14:00 +11°C° 0 mm 1 mps 586 mmHg 50%
    15:00 +11°C° 0 mm 1 mps 586 mmHg 54%
    16:00 +10°C° 0 mm 1 mps 586 mmHg 57%
    17:00 +8°C° 0 mm 1 mps 585 mmHg 67%
    18:00 +6°C° 0 mm 1 mps 584 mmHg 77%
    19:00 +3°C° 0 mm 0 mps 583 mmHg 87%
    20:00 +2°C° 0 mm 0 mps 583 mmHg 87%
    21:00 +3°C° 0 mm 1 mps 583 mmHg 87%
    22:00 +3°C° 0 mm 1 mps 584 mmHg 88%
    23:00 +3°C° 0 mm 1 mps 584 mmHg 87%

    19 October, Friday

    Time Temperature Precipitation Wind Pressure Humidity
    00:00 +3°C° 0 mm 1 mps 584 mmHg 87%
    01:00 +3°C° 0 mm 1 mps 584 mmHg 87%
    02:00 +3°C° 0 mm 1 mps 583 mmHg 86%
    03:00 +2°C° 0 mm 1 mps 583 mmHg 86%
    04:00 +2°C° 0 mm 1 mps 583 mmHg 86%
    05:00 +2°C° 0 mm 1 mps 583 mmHg 85%
    06:00 +2°C° 0 mm 1 mps 583 mmHg 85%
    07:00 +2°C° 0 mm 1 mps 583 mmHg 85%
    08:00 +5°C° 0 mm 1 mps 585 mmHg 75%
    09:00 +7°C° 0 mm 1 mps 586 mmHg 66%
    10:00 +9°C° 0 mm 0 mps 588 mmHg 57%
    11:00 +11°C° 0 mm 1 mps 588 mmHg 54%
    12:00 +11°C° 0 mm 1 mps 588 mmHg 51%
    13:00 +12°C° 0 mm 1 mps 588 mmHg 48%
    14:00 +11°C° 0 mm 1 mps 588 mmHg 52%
    15:00 +11°C° 0 mm 1 mps 588 mmHg 55%
    16:00 +10°C° 0 mm 1 mps 587 mmHg 59%
    17:00 +8°C° 0 mm 1 mps 587 mmHg 69%
    18:00 +5°C° 0 mm 0 mps 586 mmHg 78%
    19:00 +3°C° 0 mm 0 mps 585 mmHg 88%
    20:00 +3°C° 0 mm 0 mps 585 mmHg 89%
    21:00 +3°C° 0 mm 0 mps 585 mmHg 90%
    22:00 +2°C° 0 mm 0 mps 585 mmHg 91%
    23:00 +2°C° 0 mm 0 mps 585 mmHg 91%

    20 October, Saturday

    Time Temperature Precipitation Wind Pressure Humidity
    00:00 +2°C° 0 mm 0 mps 585 mmHg 92%
    01:00 +3°C° 0 mm 1 mps 585 mmHg 92%
    02:00 +3°C° 0 mm 1 mps 585 mmHg 92%
    03:00 +3°C° 0 mm 1 mps 585 mmHg 92%
    04:00 +2°C° 0 mm 1 mps 585 mmHg 92%
    05:00 +2°C° 0 mm 1 mps 585 mmHg 92%
    06:00 +2°C° 0 mm 1 mps 585 mmHg 92%
    07:00 +2°C° 0 mm 1 mps 585 mmHg 92%
    08:00 +4°C° 0 mm 1 mps 586 mmHg 83%
    09:00 +6°C° 0 mm 1 mps 588 mmHg 74%
    10:00 +8°C° 0 mm 1 mps 589 mmHg 65%
    11:00 +9°C° 0 mm 1 mps 589 mmHg 59%
    12:00 +10°C° 0 mm 1 mps 589 mmHg 53%
    13:00 +11°C° 0 mm 1 mps 590 mmHg 47%
    14:00 +11°C° 0 mm 1 mps 589 mmHg 50%
    15:00 +9°C° 0 mm 2 mps 589 mmHg 53%
    16:00 +8°C° 0 mm 2 mps 588 mmHg 56%
    17:00 +6°C° 0 mm 2 mps 588 mmHg 64%
    18:00 +5°C° 0 mm 2 mps 587 mmHg 73%
    19:00 +3°C° 0 mm 2 mps 586 mmHg 82%
    20:00 +2°C° 0 mm 2 mps 586 mmHg 83%
    21:00 +2°C° 0 mm 2 mps 586 mmHg 84%
    22:00 +1°C° 0 mm 2 mps 586 mmHg 86%
    23:00 +1°C° 0 mm 2 mps 585 mmHg 86%

    21 October, Sunday

    Time Temperature Precipitation Wind Pressure Humidity
    00:00 -1°C° 0 mm 2 mps 585 mmHg 87%
    01:00 -1°C° 0 mm 2 mps 585 mmHg 87%
    02:00 -1°C° 0 mm 2 mps 584 mmHg 86%
    03:00 -2°C° 0 mm 2 mps 584 mmHg 86%
    04:00 -2°C° 0 mm 3 mps 584 mmHg 85%
    05:00 -2°C° 0 mm 3 mps 584 mmHg 85%
    06:00 -2°C° 0 mm 3 mps 584 mmHg 84%
    07:00 -2°C° 0 mm 3 mps 584 mmHg 84%
    08:00 -1°C° 0 mm 3 mps 585 mmHg 72%
    09:00 +1°C° 0 mm 3 mps 586 mmHg 60%
    10:00 +4°C° 0 mm 2 mps 587 mmHg 49%
    11:00 +4°C° 0 mm 3 mps 587 mmHg 43%
    12:00 +5°C° 0 mm 3 mps 587 mmHg 37%
    13:00 +5°C° 0 mm 3 mps 587 mmHg 32%
    14:00 +4°C° 0 mm 3 mps 587 mmHg 36%
    15:00 +4°C° 0 mm 3 mps 586 mmHg 40%
    16:00 +3°C° 0 mm 3 mps 586 mmHg 44%
    17:00 +1°C° 0 mm 3 mps 585 mmHg 55%
    18:00 -1°C° 0 mm 2 mps 585 mmHg 66%
    19:00 -3°C° 0 mm 2 mps 584 mmHg 77%
    20:00 -4°C° 0 mm 2 mps 584 mmHg 78%
    21:00 -4°C° 0 mm 2 mps 584 mmHg 80%
    22:00 -3°C° 0 mm 1 mps 584 mmHg 82%
    23:00 -5°C° 0 mm 2 mps 584 mmHg 78%
    Show more